This demonstration page uses our WeatherBlox Daily Observations layout. Learn more.

Left ArrowRight Arrow

41.12389, -100.76542

Hourly Observations for November 25, 2016

Temp ( °F °C ) Dew Point ( °F °C ) Humidity (%) Winds ( mph kmh ) Pressure ( in mb ) Visibility ( mi km ) Precip ( " mm )
12:53 am 00:53 Clear 25 -3.9 22 -5.6 88 88 WNW 6 9 30.43 1031 10 16 0.00 0.00
1:53 am 01:53 Clear 21 -6.1 19 -7.2 92 92 NNW 3 6 30.44 1031 10 16 0.00 0.00
2:53 am 02:53 Clear 20 -6.7 17 -8.3 89 89 NW 6 9 30.43 1031 10 16 0.00 0.00
3:53 am 03:53 Clear 19 -7.2 17 -8.3 92 92 NW 5 7 30.42 1030 10 16 0.00 0.00
4:53 am 04:53 Clear 20 -6.7 17 -8.3 89 89 WNW 6 9 30.44 1031 10 16 0.00 0.00
5:53 am 05:53 Clear 19 -7.2 16 -8.9 88 88 NW 7 11 30.45 1031 10 16 0.00 0.00
6:53 am 06:53 Clear 17 -8.3 14 -10 88 88 WNW 6 9 30.48 1032 10 16 0.00 0.00
7:53 am 07:53 Sunny 18 -7.8 15 -9.4 88 88 NW 5 7 30.49 1033 10 16 0.00 0.00
8:53 am 08:53 Sunny 25 -3.9 22 -5.6 88 88 Calm 30.49 1032 10 16 0.00 0.00
9:53 am 09:53 Sunny 32 0 25 -3.9 75 75 W 6 9 30.46 1032 10 16 0.00 0.00
10:53 am 10:53 Sunny 37 2.8 26 -3.3 65 65 Calm 30.44 1031 10 16 0.00 0.00
11:53 am 11:53 Sunny 48 8.9 25 -3.9 41 41 SW 12 19 30.38 1029 10 16 0.00 0.00
12:53 pm 12:53 Sunny 53 11.7 23 -5 31 31 SSW 13 20 30.33 1027 10 16 0.00 0.00
1:53 pm 13:53 Sunny 55 12.8 23 -5 29 29 SW 14 22 30.31 1026 10 16 0.00 0.00
2:53 pm 14:53 Sunny 55 12.8 26 -3.3 33 33 SSW 13 20 30.28 1026 10 16 0.00 0.00
3:53 pm 15:53 Sunny 54 12.2 27 -2.8 35 35 SSW 12 19 30.28 1026 10 16 0.00 0.00
4:53 pm 16:53 Sunny 49 9.4 26 -3.3 41 41 S 6 9 30.28 1025 10 16 0.00 0.00
5:53 pm 17:53 Clear 41 5 25 -3.9 53 53 Calm 30.29 1026 10 16 0.00 0.00
6:53 pm 18:53 Clear 39 3.9 25 -3.9 57 57 Calm 30.30 1026 10 16 0.00 0.00
7:53 pm 19:53 Clear 43 6.1 23 -5 45 45 S 6 9 30.29 1026 10 16 0.00 0.00
8:53 pm 20:53 Clear 42 5.6 22 -5.6 45 45 S 13 20 30.26 1025 10 16 0.00 0.00
9:53 pm 21:53 Clear 41 5 22 -5.6 47 47 SSW 9 15 30.24 1024 10 16 0.00 0.00
10:53 pm 22:53 Clear 36 2.2 22 -5.6 57 57 ENE 5 7 30.23 1024 10 16 0.00 0.00
11:53 pm 23:53 Clear 38 3.3 21 -6.1 51 51 Calm 30.20 1023 10 16 0.00 0.00

Powered by AerisWeather